[[{"header":{"parameterUnit":"m.s-1","parameterCategory":1,"la1":30.2991,"la2":30.254,"lo1":-89.0895,"lo2":-89.0444,"dy":0.0017,"dx":0.0017,"nx":28,"ny":28,"refTime":"2023-10-12T21:00:00:Z","depth":0,"parameterNumber":2,"parameterNumberName":"U-component_of_WINDS"},"data":[0,0,0,0,0,0,0,0,0,0,0,0,0,0,0,0,0,0,0,0,0,0,0,0,0,0,0,0,0,0,0,0,0,0,0,0,0,0,0,0,0,0,0,0,0,0,0,0,0,0,0,0,0,0,0,0,0,0,2.2704,2.2704,0,2.2695,2.2695,2.2695,2.2586,2.2583,2.2581,2.2578,2.2571,2.2573,2.2575,0,0,0,0,0,0,0,0,0,0,0,0,0,2.2631,2.2633,2.2704,2.2704,2.2704,2.2695,2.2695,2.2695,2.2587,2.2583,2.258,2.2577,2.257,2.2573,2.2576,0,0,0,0,0,0,0,0,0,0,0,0,0,2.2646,2.2633,2.2704,2.2649,2.2644,2.2695,2.2695,2.2695,2.2587,2.2583,2.2579,2.2575,2.2569,2.2573,2.2576,2.268,0,0,2.2587,2.2588,0,0,0,0,0,0,0,0,2.2645,2.2649,2.2657,2.2653,2.2647,2.2637,2.2666,2.269,2.2588,2.2609,2.2578,2.2573,2.2597,2.2598,2.2605,2.268,2.2679,2.2587,2.2589,2.2591,2.2592,0,0,0,0,0,0,0,2.2644,2.2649,2.2701,2.2658,2.2652,2.2625,2.2623,2.267,2.2626,2.2607,2.2599,2.2599,2.2593,2.2602,2.2604,2.2679,2.2587,2.259,2.2592,2.2594,2.2837,2.2841,0,0,0,0,0,0,2.2651,2.2649,2.2701,2.27,2.2636,2.263,2.2627,2.2645,2.2625,2.2618,2.2603,2.2594,2.2598,2.26,2.2603,2.2722,2.2591,2.2594,2.2596,2.2833,2.2838,2.2843,0,0,0,0,0,0,2.265,2.2657,2.2701,2.2672,2.2676,2.2635,2.2656,2.2647,2.2655,2.2622,2.2614,2.2619,2.2595,2.2598,2.2661,2.272,2.2596,2.2599,2.2827,2.2834,2.284,2.2961,0,0,0,0,0,0,2.2648,2.2657,2.2696,2.2674,2.2678,2.2759,2.266,2.265,2.2661,2.265,2.2635,2.2629,2.2592,2.2656,2.2665,2.2723,2.2602,2.2822,2.283,2.2838,2.2951,2.2971,2.2987,0,0,0,0,0,2.2646,2.2731,2.2698,2.2705,2.2726,2.2763,2.2765,2.2719,2.2667,2.2705,2.2684,2.263,2.2713,2.2664,2.2672,2.2732,2.2818,2.2828,2.2837,2.2943,2.2967,2.2987,0,0,0,0,0,0,2.2762,2.2727,2.269,2.2771,2.2771,2.2744,2.2792,2.2746,2.2761,2.275,2.2694,2.2691,2.2763,2.2754,2.27,2.2831,2.2756,2.2768,2.2834,2.2856,2.2873,2.2873,2.2605,0,0,0,0,0,2.2797,2.2829,2.2798,2.2872,2.2873,2.2833,2.2848,2.2812,2.281,2.2809,2.2792,2.2793,2.2818,2.2837,2.2859,2.295,2.2945,2.2995,2.3013,2.3028,2.3039,2.3084,2.3106,2.2875,2.2874,2.2874,0,0,2.2869,2.2854,2.2879,2.2895,2.289,2.2925,2.2834,2.2875,2.29,2.2816,2.2873,2.2861,2.2858,2.2935,2.2968,2.293,2.3102,2.3041,2.3053,2.3055,2.3097,2.3119,2.3138,2.2881,2.288,2.2879,0,0,2.3019,2.3012,2.3071,2.3068,2.3062,2.3034,2.3049,2.303,2.3018,2.3075,2.3011,2.3041,2.3088,2.3087,2.3093,2.3242,2.3192,2.3251,2.3343,2.3389,2.3407,2.3423,2.3474,2.3493,2.3261,2.3262,2.3262,0,2.311,2.3159,2.3108,2.3153,2.3162,2.3086,2.3146,2.3146,2.3148,2.3156,2.3113,2.3168,2.316,2.3235,2.3271,2.3279,2.3293,2.3251,2.3408,2.3424,2.3438,2.3486,2.3506,2.3269,2.3268,2.3267,2.3267,0,2.3271,2.3306,2.3355,2.3357,2.3371,2.3424,2.3381,2.3402,2.3366,2.3343,2.3401,2.3389,2.3407,2.3422,2.3388,2.3492,2.3468,2.3418,2.3341,2.3468,2.3512,2.353,2.3279,2.3276,2.3274,2.3272,0,0,2.3493,2.3465,2.3484,2.3482,2.347,2.3496,2.3546,2.3561,2.3579,2.3584,2.3623,2.3663,2.3616,2.3623,2.3588,2.3628,2.3744,2.3572,2.3571,2.3603,2.3856,2.3892,2.3915,2.3712,2.3715,2.3718,2.3856,0,2.3635,2.3715,2.367,2.3757,2.3788,2.3717,2.3759,2.3756,2.3736,2.376,2.3739,2.3767,2.3704,2.3707,2.3744,2.3722,2.3794,2.3712,2.3747,2.3748,2.3748,2.3938,2.3977,2.4108,2.3873,2.3876,2.3878,0,2.3811,2.3821,2.3911,2.389,2.3901,2.394,2.395,2.3975,2.397,2.3952,2.396,2.3914,2.3961,2.3887,2.395,2.3895,2.3907,2.3898,2.3902,2.3902,2.3819,2.3941,2.4148,2.4167,2.3905,2.3903,2.3901,0,2.3962,2.3997,2.4055,2.4057,2.4035,2.4063,2.4056,2.4047,2.4059,2.4068,2.4075,2.4091,2.4099,2.4113,2.4073,2.4023,2.4141,2.4064,2.4127,2.4128,2.4153,2.4152,2.4363,2.4165,2.4165,2.4165,2.4164,0,2.4124,2.4181,2.4121,2.4157,2.4218,2.4167,2.423,2.4215,2.4207,2.4238,2.4178,2.4209,2.4156,2.4181,2.4151,2.4207,2.4212,2.4198,2.4189,2.4203,2.4204,2.4208,2.4197,2.417,2.4169,2.4168,2.4167,0,2.4301,2.4264,2.4321,2.4296,2.429,2.4337,2.4315,2.4347,2.4322,2.4363,2.4369,2.4332,2.4358,2.432,2.4344,2.4323,2.4399,2.4378,2.4401,2.4393,2.4458,2.4452,2.4678,2.4704,2.4491,2.4493,2.4495,0,2.4406,2.4448,2.4426,2.4442,2.4437,2.4464,2.4475,2.4427,2.4441,2.4438,2.447,2.4491,2.4505,2.4552,2.4527,2.4544,2.4521,2.4599,2.4524,2.4535,2.452,2.4517,2.452,2.4614,2.4617,2.4619,2.4621,0,2.4595,2.4574,2.4592,2.4604,2.4619,2.4626,2.4629,2.4645,2.4594,2.4613,2.4639,2.465,2.4673,2.4695,2.4706,2.4698,2.4651,2.4645,2.466,2.4673,2.4684,2.4676,2.444,2.464,2.4638,2.4636,2.4635,2.4635,2.4738,2.4771,2.476,2.4782,2.4778,2.4782,2.481,2.4788,2.4809,2.4822,2.4793,2.4826,2.4819,2.4828,2.4826,2.4852,2.4818,2.484,2.4845,2.4851,2.486,2.4682,2.4854,2.4853,2.4853,2.4852,2.4852,0,2.4922,2.4911,2.4932,2.4936,2.4953,2.4907,2.4907,2.4925,2.4954,2.4951,2.4966,2.4995,2.5016,2.4993,2.5009,2.5034,2.5013,2.504,2.5036,2.5035,2.4891,2.4875,2.5056,2.5056,2.5056,2.5056,2.5056,2.5056,2.502,2.5072,2.505,2.51,2.5089,2.512,2.5124,2.5127,2.5124,2.5159,2.5175,2.5159,2.5148,2.5163,2.518,2.5173,2.5181,2.5215,2.52,2.5066,2.5045,2.5026,2.5011,2.5218,2.5218,2.5342,2.5343,2.5344]},{"header":{"parameterUnit":"m.s-1","parameterCategory":1,"la1":30.2991,"la2":30.254,"lo1":-89.0895,"lo2":-89.0444,"dy":0.0017,"dx":0.0017,"nx":28,"ny":28,"refTime":"2023-10-12T21:00:00:Z","depth":0,"parameterNumber":3,"parameterNumberName":"V-component_of_WINDS"},"data":[0,0,0,0,0,0,0,0,0,0,0,0,0,0,0,0,0,0,0,0,0,0,0,0,0,0,0,0,0,0,0,0,0,0,0,0,0,0,0,0,0,0,0,0,0,0,0,0,0,0,0,0,0,0,0,0,0,0,0.6745,0.6744,0,0.6662,0.6661,0.666,0.6589,0.6588,0.6587,0.6586,0.6499,0.6498,0.6496,0,0,0,0,0,0,0,0,0,0,0,0,0,0.6836,0.6835,0.6745,0.6744,0.6743,0.6662,0.6661,0.666,0.6589,0.6588,0.6587,0.6586,0.65,0.6498,0.6496,0,0,0,0,0,0,0,0,0,0,0,0,0,0.6779,0.6835,0.6745,0.6697,0.6692,0.6663,0.6661,0.666,0.6589,0.6588,0.6587,0.6585,0.65,0.6498,0.6496,0.6505,0,0,0.6488,0.6487,0,0,0,0,0,0,0,0,0.6783,0.6776,0.6705,0.6701,0.6695,0.6635,0.6661,0.6608,0.6589,0.6628,0.6586,0.6585,0.6545,0.6539,0.6526,0.6501,0.6498,0.6488,0.6487,0.6486,0.6485,0,0,0,0,0,0,0,0.6787,0.6779,0.6712,0.6704,0.6698,0.6679,0.667,0.6651,0.6594,0.6625,0.6619,0.6611,0.6542,0.6528,0.6523,0.6496,0.6488,0.6486,0.6485,0.6484,0.6473,0.6474,0,0,0,0,0,0,0.6798,0.6783,0.6715,0.6709,0.6737,0.6678,0.6668,0.6655,0.6594,0.6584,0.6612,0.6608,0.6533,0.6526,0.652,0.6526,0.6486,0.6484,0.6482,0.6472,0.6473,0.6475,0,0,0,0,0,0,0.6801,0.6793,0.6718,0.6745,0.6734,0.6678,0.6664,0.6654,0.6641,0.6585,0.6574,0.6609,0.6532,0.6523,0.6509,0.6522,0.6483,0.648,0.6471,0.6472,0.6474,0.654,0,0,0,0,0,0,0.6804,0.6794,0.6799,0.6745,0.6733,0.671,0.6665,0.6653,0.6637,0.6631,0.6579,0.6569,0.653,0.6513,0.6507,0.6518,0.6479,0.6469,0.6471,0.6473,0.6536,0.6543,0.655,0,0,0,0,0,0.6807,0.682,0.6799,0.6791,0.6737,0.6711,0.6703,0.6659,0.6639,0.6641,0.6605,0.6571,0.6522,0.6512,0.6505,0.6516,0.6468,0.6471,0.6473,0.6533,0.6542,0.6549,0,0,0,0,0,0,0.6876,0.6812,0.6788,0.6785,0.6754,0.6699,0.6702,0.667,0.6644,0.6639,0.6584,0.6573,0.6565,0.6539,0.6529,0.6521,0.649,0.6491,0.6538,0.6546,0.6553,0.6559,0.6477,0,0,0,0,0,0.6891,0.6876,0.6821,0.6823,0.6809,0.6758,0.6745,0.6714,0.6679,0.6665,0.6628,0.6595,0.6571,0.6557,0.6533,0.6532,0.6518,0.6535,0.6542,0.6548,0.6549,0.6545,0.6551,0.6483,0.6483,0.6483,0,0,0.6921,0.6884,0.6878,0.6836,0.6808,0.6793,0.6747,0.6733,0.6721,0.6663,0.6647,0.6618,0.6577,0.657,0.6564,0.6547,0.6565,0.6551,0.6556,0.6554,0.6548,0.6555,0.656,0.6485,0.6484,0.6484,0,0,0.6968,0.694,0.6937,0.691,0.6869,0.6835,0.6835,0.6784,0.6763,0.6747,0.6702,0.6686,0.6648,0.662,0.6601,0.6636,0.6602,0.6629,0.6664,0.6661,0.6666,0.667,0.6682,0.6687,0.6631,0.6631,0.6631,0,0.701,0.6987,0.694,0.6928,0.691,0.6857,0.6854,0.6829,0.6782,0.677,0.6752,0.6702,0.6671,0.6655,0.6663,0.665,0.6646,0.6635,0.6669,0.6673,0.6677,0.6687,0.6691,0.6634,0.6634,0.6634,0.6633,0,0.704,0.7024,0.7027,0.6984,0.6965,0.6958,0.6909,0.6896,0.6866,0.6833,0.6816,0.6777,0.6743,0.6736,0.6707,0.6716,0.6706,0.668,0.6648,0.6688,0.6696,0.6699,0.6639,0.6638,0.6637,0.6636,0,0,0.7129,0.7059,0.706,0.7039,0.6989,0.6975,0.6964,0.6932,0.6921,0.689,0.6879,0.6847,0.6821,0.68,0.6766,0.6763,0.6791,0.6736,0.6734,0.6747,0.6797,0.6817,0.6822,0.6769,0.677,0.677,0.68,0,0.7167,0.7146,0.7103,0.7095,0.7079,0.7027,0.7017,0.6985,0.6954,0.6934,0.6899,0.6877,0.6846,0.6832,0.6827,0.6789,0.6801,0.6787,0.6756,0.6756,0.6768,0.6827,0.6848,0.6878,0.6803,0.6804,0.6804,0,0.7209,0.7181,0.7172,0.7122,0.7113,0.7106,0.7071,0.7054,0.7015,0.6992,0.6968,0.6931,0.6915,0.6886,0.6862,0.6854,0.6838,0.6818,0.6818,0.6813,0.6782,0.6823,0.6887,0.6891,0.6809,0.6809,0.6808,0,0.7273,0.7234,0.7222,0.7206,0.7147,0.7143,0.7118,0.7078,0.7061,0.703,0.7018,0.6986,0.6969,0.6944,0.6898,0.6882,0.6879,0.6847,0.6858,0.686,0.686,0.686,0.6922,0.6852,0.6852,0.6852,0.6851,0,0.732,0.7316,0.725,0.7244,0.7237,0.7187,0.7181,0.7151,0.7115,0.7101,0.7054,0.7041,0.6982,0.6961,0.6925,0.691,0.6903,0.6883,0.6873,0.6886,0.6889,0.6875,0.6872,0.6853,0.6852,0.6852,0.6852,0,0.7391,0.7347,0.7331,0.7277,0.7263,0.726,0.7213,0.7203,0.7169,0.715,0.7143,0.7089,0.7062,0.7014,0.6974,0.6949,0.6941,0.6925,0.6955,0.6949,0.6962,0.6961,0.7017,0.7021,0.695,0.695,0.6951,0,0.7424,0.7419,0.7364,0.7351,0.7328,0.7308,0.729,0.724,0.7223,0.7178,0.7173,0.7143,0.7116,0.7075,0.7031,0.6999,0.6981,0.7003,0.6976,0.6989,0.698,0.6981,0.6979,0.7009,0.701,0.7011,0.7012,0,0.7486,0.7464,0.744,0.7409,0.7389,0.7362,0.7332,0.7323,0.7266,0.7249,0.7221,0.72,0.7158,0.7128,0.709,0.7062,0.7027,0.702,0.7021,0.7034,0.7051,0.7041,0.697,0.7019,0.7018,0.7018,0.7017,0.7017,0.7537,0.753,0.7491,0.7465,0.7438,0.741,0.7398,0.7363,0.7339,0.7302,0.7273,0.7247,0.7206,0.7151,0.7126,0.7103,0.7087,0.7089,0.7089,0.709,0.7095,0.7056,0.7096,0.7096,0.7096,0.7096,0.7095,0,0.7596,0.7567,0.7545,0.7505,0.7484,0.7454,0.7419,0.7403,0.7382,0.7347,0.7322,0.7289,0.7259,0.7212,0.7178,0.7169,0.7152,0.7162,0.7162,0.7155,0.7112,0.7114,0.7176,0.7176,0.7176,0.7176,0.7176,0.7176,0.7624,0.761,0.7584,0.7555,0.7526,0.7501,0.7484,0.7458,0.743,0.7396,0.7371,0.7341,0.7301,0.7263,0.7234,0.7221,0.721,0.7225,0.7206,0.7166,0.7159,0.7152,0.7153,0.7223,0.7223,0.7251,0.7252,0.7252]}]]